星链-1488 (STARLINK-1488 )

导读 | 豆包AI

STARLINK-1488是美国太空探索技术公司Starlink星链卫星互联网项目的组成部分,于2020年6月13日发射入轨,属于星链低轨通信卫星群的早期组网卫星,运行在近地轨道,承担卫星互联网通信任务,为全球提供高速网络接入服务,也服务于星链的全球通信覆盖组网建设。

基本信息
目录编号:
45775
目录名称:
STARLINK-1488
国际标识:
2020-038AX
轨道中心:
EARTH
卫星名称:
星链-1488
卫星全名:
星链-1488 (STARLINK-1488 )
卫星状态:
已陨落 最后检测时间 2024-11-12
发射日期:
2020-06-13 UTC
国别 :
美国 (US)
星等 :
--
轨道信息
数据来源 国际轨道数据
星历时间: 2024-11-12T11:39:09+0800
轨道信息已过期533天
半长轴: 6557.767km
偏心率: 0.0006872
轨道倾角: 53.041°
近地点辐角 310.757°
升交点赤经 78.077°
平近点角 182.716°
近地点: 175.125km
远地点: 184.139km
周期: 88.083分钟
每日圈数: 16.348157
详细信息
固有亮度:
5
最大亮度:
2.5
卫星平台:
Starlink V1.0
覆盖范围:
全球
运营商:
太空探索技术公司
运营商所在国:
美国
制造商(研发单位):
太空探索技术公司
制造商所在国:
美国
使用方式:
暂无
卫星简介
星链(Starlink)计划是由太空探索技术公司(SpaceX)提出的一个巨型低轨卫星互联网星座项目,计划在2019年至2024年间在太空搭建由约1.2万颗卫星组成的“星链”网络,其中1584颗将部署在地球上空550千米处的近地轨道,并从2020年开始工作。该卫星仍在工作。